Powrót do katalogu

COSMOS 2273

AktywnyMilitariaPO
NORAD 23004·PAYLOAD·🇷🇺 Russia

Wystrzelony Feb 12, 1994 z Plesetsk Cosmodrome

Loading…

Następne Przeloty (najbliższe 24 godziny)

TLE

ŚwieżeSource: Space-Track

Epoka: Sep 14, 2026, 00:29 UTC

1 23004U 94011F   26257.02017058  .00000005  00000-0 -29571-4 0  9993
2 23004  82.5692 258.2403 0005131   2.7481  23.9321 12.62922336501966

Śledź COSMOS 2273 w czasie rzeczywistym z AllMySat

Download on the App Store